TimeEST,TemperatureF,Dew PointF,Humidity,Sea Level PressureIn,VisibilityMPH,Wind Direction,Wind SpeedMPH,Gust SpeedMPH,PrecipitationIn,Events,Conditions,WindDirDegrees,DateUTC
12:15 AM,63.5,62.8,97,29.99,7.0,Calm,Calm,-,N/A,,Scattered Clouds,0,2012-12-10 05:15:00
12:35 AM,63.7,63.1,98,29.98,7.0,Calm,Calm,-,N/A,,Scattered Clouds,0,2012-12-10 05:35:00
12:55 AM,63.9,63.5,99,29.97,10.0,Calm,Calm,-,N/A,,Clear,0,2012-12-10 05:55:00
1:15 AM,63.9,63.5,99,29.96,7.0,Calm,Calm,-,N/A,,Scattered Clouds,0,2012-12-10 06:15:00
1:35 AM,64.0,63.5,98,29.95,7.0,Calm,Calm,-,N/A,,Mostly Cloudy,0,2012-12-10 06:35:00
1:55 AM,64.0,63.7,99,29.95,5.0,Calm,Calm,-,N/A,,Overcast,0,2012-12-10 06:55:00
2:15 AM,64.4,63.9,98,29.94,7.0,Calm,Calm,-,N/A,,Overcast,0,2012-12-10 07:15:00
2:35 AM,64.4,63.9,98,29.93,7.0,Calm,Calm,-,N/A,,Overcast,0,2012-12-10 07:35:00
2:55 AM,64.0,63.7,99,29.93,2.0,Calm,Calm,-,N/A,,Overcast,0,2012-12-10 07:55:00
3:15 AM,63.0,62.6,99,29.93,4.0,Calm,Calm,-,N/A,,Overcast,0,2012-12-10 08:15:00
3:55 AM,63.5,63.0,98,29.91,0.5,Calm,Calm,-,N/A,Fog,Fog,0,2012-12-10 08:55:00
4:15 AM,63.7,63.5,99,29.90,0.2,Calm,Calm,-,N/A,Fog,Fog,0,2012-12-10 09:15:00
4:35 AM,63.5,63.1,99,29.89,0.2,ESE,3.5,-,N/A,Rain,Rain,110,2012-12-10 09:35:00
4:55 AM,63.5,63.5,100,29.90,0.2,Calm,Calm,-,N/A,Rain,Light Rain,0,2012-12-10 09:55:00
5:15 AM,63.5,63.5,100,29.89,0.5,Calm,Calm,-,N/A,Fog,Fog,0,2012-12-10 10:15:00
5:35 AM,63.5,63.1,99,29.89,0.2,Calm,Calm,-,N/A,Fog,Fog,0,2012-12-10 10:35:00
5:55 AM,63.3,63.0,99,29.90,1.0,SW,3.5,-,N/A,,Overcast,220,2012-12-10 10:55:00
6:15 AM,63.1,63.0,99,29.90,1.2,Calm,Calm,-,N/A,,Overcast,0,2012-12-10 11:15:00
6:35 AM,63.0,62.8,99,29.89,0.5,Calm,Calm,-,N/A,Fog,Fog,0,2012-12-10 11:35:00
6:55 AM,63.1,63.0,99,29.89,0.5,South,3.5,-,N/A,Fog,Fog,190,2012-12-10 11:55:00
7:15 AM,63.1,63.1,100,29.89,0.8,Calm,Calm,-,N/A,,Overcast,0,2012-12-10 12:15:00
7:35 AM,63.1,63.1,100,29.89,0.5,Calm,Calm,-,N/A,Fog,Fog,0,2012-12-10 12:35:00
7:55 AM,63.7,63.7,100,29.89,0.2,SSW,4.6,-,N/A,Fog,Fog,210,2012-12-10 12:55:00
8:15 AM,64.0,63.9,99,29.89,3.0,SSW,5.8,-,N/A,,Overcast,210,2012-12-10 13:15:00
8:35 AM,64.4,64.4,100,29.89,5.0,SSW,5.8,-,N/A,,Overcast,210,2012-12-10 13:35:00
8:55 AM,64.8,64.6,99,29.89,5.0,SSW,5.8,-,N/A,,Overcast,210,2012-12-10 13:55:00
9:15 AM,65.3,65.3,100,29.89,7.0,SW,6.9,-,N/A,,Overcast,220,2012-12-10 14:15:00
9:35 AM,65.7,65.5,99,29.90,10.0,SSW,8.1,-,N/A,,Overcast,200,2012-12-10 14:35:00
9:55 AM,66.2,66.0,99,29.89,10.0,SSW,8.1,-,N/A,,Overcast,210,2012-12-10 14:55:00
10:15 AM,66.2,65.8,99,29.89,10.0,SW,9.2,-,N/A,,Overcast,220,2012-12-10 15:15:00
10:35 AM,67.1,66.2,97,29.88,10.0,SW,8.1,-,N/A,,Overcast,220,2012-12-10 15:35:00
10:55 AM,67.6,65.8,94,29.88,10.0,SSW,9.2,16.1,N/A,,Mostly Cloudy,210,2012-12-10 15:55:00
11:35 AM,71.6,62.4,73,29.85,10.0,SW,11.5,18.4,N/A,,Scattered Clouds,230,2012-12-10 16:35:00
11:55 AM,73.6,61.2,65,29.85,10.0,SW,17.3,21.9,N/A,,Scattered Clouds,220,2012-12-10 16:55:00
12:15 PM,73.6,57.7,58,29.84,10.0,SSW,15.0,23.0,N/A,,Scattered Clouds,210,2012-12-10 17:15:00
12:35 PM,72.5,57.9,60,29.83,10.0,SSW,18.4,26.5,N/A,,Clear,210,2012-12-10 17:35:00
12:55 PM,73.2,57.2,57,29.83,10.0,SW,15.0,19.6,N/A,,Clear,230,2012-12-10 17:55:00
1:15 PM,73.4,57.0,56,29.82,10.0,SW,11.5,23.0,N/A,,Scattered Clouds,220,2012-12-10 18:15:00
1:35 PM,72.9,56.8,57,29.81,10.0,SW,8.1,20.7,N/A,,Scattered Clouds,230,2012-12-10 18:35:00
1:55 PM,73.6,57.0,56,29.81,10.0,SW,9.2,-,N/A,,Scattered Clouds,230,2012-12-10 18:55:00
2:15 PM,73.4,56.5,55,29.80,10.0,SW,10.4,-,N/A,,Clear,220,2012-12-10 19:15:00
2:35 PM,73.0,55.9,55,29.79,10.0,SW,8.1,-,N/A,,Clear,230,2012-12-10 19:35:00
2:55 PM,73.8,55.2,52,29.79,10.0,SSW,12.7,-,N/A,,Clear,200,2012-12-10 19:55:00
3:15 PM,73.4,54.7,52,29.79,10.0,SW,11.5,18.4,N/A,,Clear,220,2012-12-10 20:15:00
3:35 PM,73.0,55.2,53,29.79,10.0,SW,11.5,17.3,N/A,,Clear,220,2012-12-10 20:35:00
3:55 PM,72.5,55.8,56,29.79,10.0,SSW,9.2,16.1,N/A,,Clear,210,2012-12-10 20:55:00
4:15 PM,72.9,55.9,55,29.78,10.0,South,8.1,-,N/A,,Clear,190,2012-12-10 21:15:00
4:35 PM,70.5,60.3,70,29.79,10.0,South,5.8,-,N/A,,Clear,170,2012-12-10 21:35:00
4:55 PM,68.7,60.3,74,29.78,10.0,South,4.6,-,N/A,,Clear,180,2012-12-10 21:55:00
5:15 PM,67.1,60.3,79,29.79,10.0,South,4.6,-,N/A,,Clear,170,2012-12-10 22:15:00
5:35 PM,65.8,60.1,82,29.79,10.0,South,4.6,-,N/A,,Clear,170,2012-12-10 22:35:00
5:55 PM,64.9,60.4,85,29.79,10.0,South,6.9,-,N/A,,Clear,170,2012-12-10 22:55:00
6:15 PM,64.4,60.8,88,29.80,10.0,South,5.8,-,N/A,,Clear,170,2012-12-10 23:15:00
6:35 PM,63.7,60.6,90,29.80,10.0,South,5.8,-,N/A,,Clear,170,2012-12-10 23:35:00
6:55 PM,63.5,60.3,89,29.80,10.0,South,5.8,-,N/A,,Clear,180,2012-12-10 23:55:00
7:15 PM,63.5,60.1,89,29.80,10.0,South,5.8,-,N/A,,Clear,180,2012-12-11 00:15:00
7:35 PM,63.5,59.9,88,29.80,10.0,South,5.8,-,N/A,,Clear,180,2012-12-11 00:35:00
7:55 PM,62.8,59.4,89,29.79,10.0,South,3.5,-,N/A,,Clear,180,2012-12-11 00:55:00
8:15 PM,62.1,59.0,90,29.79,10.0,South,4.6,-,N/A,,Clear,180,2012-12-11 01:15:00
8:35 PM,61.9,59.0,90,29.79,10.0,South,4.6,-,N/A,,Clear,170,2012-12-11 01:35:00
8:55 PM,61.9,58.6,89,29.79,10.0,South,3.5,-,N/A,,Clear,180,2012-12-11 01:55:00
9:15 PM,61.9,58.5,89,29.79,10.0,South,3.5,-,N/A,,Clear,190,2012-12-11 02:15:00
9:55 PM,61.2,57.7,88,29.79,10.0,South,4.6,-,N/A,,Clear,180,2012-12-11 02:55:00
10:15 PM,61.0,57.7,89,29.80,10.0,South,4.6,-,N/A,,Clear,190,2012-12-11 03:15:00
10:35 PM,61.2,57.6,88,29.80,10.0,South,4.6,-,N/A,,Clear,190,2012-12-11 03:35:00
10:55 PM,61.3,57.6,87,29.80,10.0,South,4.6,-,N/A,,Clear,180,2012-12-11 03:55:00
11:15 PM,61.0,57.4,88,29.80,10.0,South,4.6,-,N/A,,Clear,180,2012-12-11 04:15:00
11:35 PM,61.2,57.4,87,29.79,10.0,South,3.5,-,N/A,,Clear,180,2012-12-11 04:35:00
11:55 PM,61.0,57.2,87,29.78,10.0,SSE,4.6,-,N/A,,Clear,160,2012-12-11 04:55:00